TimePDT,TemperatureF,Dew PointF,Humidity,Sea Level PressureIn,VisibilityMPH,Wind Direction,Wind SpeedMPH,Gust SpeedMPH,PrecipitationIn,Events,Conditions,WindDirDegrees,DateUTC
12:56 AM,53.1,50.0,89,30.12,9.0,Calm,Calm,-,0.00,Rain,Light Rain,0,2013-03-20 07:56:00
1:56 AM,52.0,50.0,93,30.12,10.0,Calm,Calm,-,0.01,,Overcast,0,2013-03-20 08:56:00
2:56 AM,52.0,50.0,93,30.11,7.0,Calm,Calm,-,0.02,Rain,Light Rain,0,2013-03-20 09:56:00
3:56 AM,53.1,50.0,89,30.12,10.0,Calm,Calm,-,0.02,,Overcast,0,2013-03-20 10:56:00
4:56 AM,52.0,50.0,93,30.10,8.0,Calm,Calm,-,0.00,,Overcast,0,2013-03-20 11:56:00
5:56 AM,52.0,50.0,93,30.10,9.0,Calm,Calm,-,N/A,,Overcast,0,2013-03-20 12:56:00
6:56 AM,53.1,48.9,86,30.09,10.0,Calm,Calm,-,N/A,,Overcast,0,2013-03-20 13:56:00
7:56 AM,53.1,51.1,93,30.12,8.0,Calm,Calm,-,N/A,,Overcast,0,2013-03-20 14:56:00
8:56 AM,55.0,53.1,93,30.12,7.0,Calm,Calm,-,0.00,,Overcast,0,2013-03-20 15:56:00
9:56 AM,57.0,54.0,89,30.13,8.0,SE,3.5,-,N/A,,Overcast,130,2013-03-20 16:56:00
10:56 AM,61.0,50.0,67,30.12,10.0,SSE,6.9,-,N/A,,Mostly Cloudy,150,2013-03-20 17:56:00
11:56 AM,66.0,45.0,47,30.12,10.0,ESE,5.8,-,N/A,,Mostly Cloudy,120,2013-03-20 18:56:00
12:56 PM,66.0,48.0,52,30.12,10.0,NNE,8.1,-,N/A,,Mostly Cloudy,20,2013-03-20 19:56:00
1:56 PM,64.9,50.0,58,30.11,10.0,NW,3.5,-,N/A,,Overcast,310,2013-03-20 20:56:00
2:56 PM,66.0,52.0,60,30.10,10.0,WNW,3.5,-,N/A,,Overcast,300,2013-03-20 21:56:00
3:56 PM,68.0,53.1,59,30.10,10.0,NW,6.9,-,N/A,,Mostly Cloudy,310,2013-03-20 22:56:00
4:56 PM,66.0,55.0,68,30.10,10.0,NW,8.1,-,N/A,,Overcast,320,2013-03-20 23:56:00
5:56 PM,63.0,53.1,70,30.09,10.0,NW,11.5,17.3,N/A,,Overcast,310,2013-03-21 00:56:00
6:56 PM,60.1,53.1,78,30.12,10.0,North,13.8,-,N/A,,Overcast,350,2013-03-21 01:56:00
7:20 PM,59.0,53.6,82,30.11,10.0,NNW,11.5,-,N/A,,Overcast,340,2013-03-21 02:20:00
7:56 PM,57.9,51.1,78,30.13,10.0,NW,11.5,-,N/A,,Overcast,320,2013-03-21 02:56:00
8:56 PM,57.0,51.1,81,30.15,10.0,NW,10.4,-,N/A,,Overcast,320,2013-03-21 03:56:00
9:56 PM,55.9,51.1,84,30.17,10.0,NW,6.9,-,N/A,,Overcast,310,2013-03-21 04:56:00
10:56 PM,55.9,48.9,77,30.16,10.0,Variable,6.9,-,N/A,,Overcast,0,2013-03-21 05:56:00
11:18 PM,55.4,48.2,77,30.15,10.0,NW,6.9,-,N/A,,Scattered Clouds,310,2013-03-21 06:18:00
11:56 PM,55.9,48.0,75,30.16,10.0,WNW,6.9,-,N/A,,Scattered Clouds,300,2013-03-21 06:56:00